Regional Weather Roundup
Issued by NWS

Home | Current Version | Previous Version | Graphics & Text | Print | Product List | Glossary On
Versions: 1 2 3 4 5 6 7 8 9 10 11 12 13 14 15 16 17 18 19 20 21 22 23 24 25 26 27 28 29 30 31 32 33 34 35 36 37 38 39 40 41 42 43 44 45 46 47 48 49 50
000
ASUS43 KDMX 210207
RWRIA

WEATHER ROUNDUP FOR IOWA
NATIONAL WEATHER SERVICE DES MOINES IA
800 PM CST SAT DEC 20 2014

NOTE: "FAIR" INDICATES FEW OR NO CLOUDS BELOW 12,000 FEET WITH NO
SIGNIFICANT WEATHER AND/OR OBSTRUCTIONS TO VISIBILITY.

* - THESE STATIONS ARE NOT NWS STATIONS...THUS NOT UNDER NWS
QUALITY CONTROL.  THEY ALSO DO NOT REPORT WEATHER SUCH
AS PRECIPITATION OR FOG.

IAZ001>003-012>014-020>022-031>034-043>046-210300-
   NORTHWEST IOWA

CITY           SKY/WX    TMP DP  RH WIND       PRES   REMARKS
CARROLL *      CLOUDY    34  32  93 S14       30.08F WCI  24
CHEROKEE *     CLOUDY    32  32 100 S10       30.05F FOG     WCI  24
DENISON *      CLOUDY    32  32 100 S8G15     30.05F FOG     WCI  25
LE MARS *      CLOUDY    32  32 100 S10G17    30.04F FOG     WCI  24
ORANGE CITY *  CLOUDY    32  30  93 S9        30.02F FOG     WCI  24
SHELDON *      CLOUDY    30  30 100 S15G21    30.02S FOG     WCI  19
SIOUX CITY     CLOUDY    33  31  92 S15       30.04F FOG     WCI  23
SPENCER        CLOUDY    32  29  88 S13       30.05F WCI  22
STORM LAKE *   CLOUDY    32  32 100 S15       30.06F FOG     WCI  22
$$

IAZ055>058-069>071-079>083-090>094-210300-
   SOUTHWEST IOWA

CITY           SKY/WX    TMP DP  RH WIND       PRES   REMARKS
ATLANTIC *     CLOUDY    32  32 100 S12       30.08F FOG     WCI  23
AUDUBON *      CLOUDY    32  28  86 S8        30.09F FOG     WCI  25
CLARINDA *     CLOUDY    36  36 100 CALM      30.11F FOG
COUNCIL BLFS * CLOUDY    34  34 100 SE8       30.05F FOG     WCI  27
CRESTON *      FOG       34  34 100 S8        30.10F VSB 1/4 WCI  27
HARLAN  *      CLOUDY    32  32 100 S10       30.11F FOG     WCI  24
LAMONI         FOG       35  35 100 SE10      30.11F VSB 1/4 WCI  27
RED OAK *      CLOUDY    34  34 100 SE3       30.09F FOG
SHENANDOAH *   CLOUDY    34  34 100 SE6       30.10S FOG     WCI  29
$$

IAZ047>049-059>061-072>074-084-210300-
   CENTRAL IOWA

CITY           SKY/WX    TMP DP  RH WIND       PRES   REMARKS
AMES           CLOUDY    33  32  96 SE7       30.12F FOG     WCI  27
ANKENY *       CLOUDY    36  34  93 SE7       30.13F FOG     WCI  30
CHARITON *     CLOUDY    36  36 100 S8        30.13S FOG     WCI  29
DES MOINES     CLOUDY    36  33  89 SE8       30.13F FOG     WCI  30
GRINNELL*      FOG       34  32  93 SE7       30.15S VSB 1/2 WCI  28
KNOXVILLE *    CLOUDY    36  34  93 SE6       30.13F FOG     WCI  31
MARSHALLTOWN   FOG       33  32  96 SE10      30.13F VSB 1/4 WCI  25
PELLA *        CLOUDY    34  34 100 S3        30.16S FOG
PERRY *        CLOUDY    34  34 100 S10       30.10F FOG     WCI  26
$$

IAZ004>006-015-016-023>025-035-036-210300-
   NORTH CENTRAL IOWA

CITY           SKY/WX    TMP DP  RH WIND       PRES   REMARKS
ALGONA *       CLOUDY    32  32 100 S12       30.09F FOG     WCI  23
CLARION *      FOG       32  32 100 SE13      30.10F VSB 1/4 WCI  22
ESTHERVILLE    CLOUDY    31  29  92 S14       30.05F WCI  21
FORT DODGE *   CLOUDY    34  28  80 S5        30.10F WCI  30
MASON CITY     CLOUDY    30  28  92 SE9       30.12F WCI  22
FOREST CITY *  CLOUDY    32  30  93 SE9       30.10S WCI  24
IOWA FALLS *   FOG       32  32 100 SE9       30.12F VSB 1/4 WCI  24
$$

IAZ007>011-017>019-026>030-037>042-050>054-066-210300-
   NORTHEAST IOWA

CITY           SKY/WX    TMP DP  RH WIND       PRES   REMARKS
CEDAR RAPIDS   CLOUDY    32  32 100 SE8       30.17S FOG     WCI  25
CHARLES CITY * CLOUDY    32  32 100 SE9       30.14F FOG     WCI  24
CLINTON *      CLOUDY    34  27  75 SE7       30.24F WCI  28
DECORAH *      CLOUDY    30  30 100 S7G14     30.15F FOG     WCI  23
DUBUQUE        CLOUDY    29  28  96 S12       30.18F FOG     WCI  19
MONTICELLO *   CLOUDY    32  32 100 SE8       30.18F FOG     WCI  25
OELWEIN *      FOG       32  32 100 SE10      30.16F VSB 1   WCI  24
WATERLOO       CLOUDY    32  31  96 SE9       30.15F FOG     WCI  24
$$

IAZ064-065-067-068-078-210300-
   EAST CENTRAL IOWA

CITY           SKY/WX    TMP DP  RH WIND       PRES   REMARKS
DAVENPORT      CLOUDY    33  28  81 SE10      30.21S HAZE    WCI  25
IOWA CITY      CLOUDY    33  32  96 SE6       30.20F FOG     WCI  28
MT. PLEASANT * CLOUDY    34  34 100 SE7       30.19F FOG     WCI  28
MUSCATINE *    CLOUDY    34  32  93 SE6       30.21S FOG     WCI  29
QUAD CITIES    CLOUDY    34  29  82 SE5       30.21F WCI  30
$$

IAZ062-063-075>077-085>089-095>099-210300-
   SOUTHEAST IOWA

CITY           SKY/WX    TMP DP  RH WIND       PRES   REMARKS
BURLINGTON     CLOUDY    36  34  92 S6        30.19F FOG     WCI  31
FAIRFIELD *    CLOUDY    34  34 100 S8        30.18S WCI  27
FORT MADISON * CLOUDY    37  36  93 S7        30.20S FOG     WCI  32
KEOKUK *       CLOUDY    37  36  93 SE5       30.19S FOG     WCI  34
OSKALOOSA *    FOG       34  32  93 SE7       30.17S VSB 1/2 WCI  28
CENTERVILLE *  CLOUDY    36  36 100 SE6       30.16F WCI  31
OTTUMWA        CLOUDY    35  34  96 SE7       30.16S FOG     WCI  29
WASHINGTON *   FOG       34  34 100 SE7       30.18F VSB 1   WCI  28
$$

ABBREVIATIONS USED IN REMARKS
   TC - TEMPERATURES IN CELSIUS
  WCI - WIND CHILL INDEX
   HX - HEAT INDEX
  VSB - VISIBILITY
$$




USA.gov is the U.S. government's official web portal to all federal, state and local government web resources and services.